weather.gov     
National Weather Service

Regional Weather Roundup
NWS Homepage
This page is being discontinued on March 12, 2014.
The same data is available at this site. Please update your bookmarks.
Thank you, and we apologize for the inconvenience.
Please send an email to SR-SRH.Webmaster@noaa.gov with any concerns.


Current Version
Previous Version:    01  02  03  04  05  06  07  08  09  10  11  12  13  14  15  16  17  18  19  20  21  22  23  24  25  26  27  28  29  30  
   31  32  33  34  35  36  37  38  39  40  41  42  43  44  45  46  47  48  49  50  51  52  53  
[Printable]
509
ASUS44 KMEG 241710
RWRTN
TENNESSEE HOURLY STATE WEATHER ROUNDUP
NATIONAL WEATHER SERVICE MEMPHIS TN
1100 AM CST MON NOV 24 2014

TNZ002-004-019-021-049-052-054-088>092-241800-
WEST TENNESSEE

CITY           SKY/WX    TMP DP  RH WIND       PRES   REMARKS
MEMPHIS INTL   SUNNY     53  34  48 W16       29.89R
NWS MEMPHIS      N/A     52 N/A N/A MISG        N/A
JACKSON        SUNNY     52  35  52 W15G22    29.85R
DYERSBURG      SUNNY     52  28  40 W16G24    29.84S
UNION CITY     MOSUNNY   48  37  66 SW18      29.79S
PARIS          MOSUNNY   48  36  61 SW16      29.80S
HUNTINGDON     MOSUNNY   50  35  56 SW15      29.82R
LEXINGTON      SUNNY     52  36  54 W9        29.83R
SAVANNAH       MOSUNNY   52  37  58 W9        29.85S
$$

TNZ008-025-027-028-033-062-065-066-241800-
NORTH MIDDLE TENNESSEE

CITY           SKY/WX    TMP DP  RH WIND       PRES   REMARKS
NASHVILLE      MOSUNNY   56  41  57 W14G23    29.78R
CLARKSVILLE    CLOUDY    52  39  61 SW15G25   29.77R
SMYRNA         MOSUNNY   59  44  57 W22G33    29.78R
COOKEVILLE     PTSUNNY   64  46  52 SW16G28   29.72R
CROSSVILLE     MOSUNNY   61  47  59 W12G33    29.74R
$$

TNZ061-075-076-078-094-096-097-241800-
SOUTH MIDDLE TENNESSEE

CITY           SKY/WX    TMP DP  RH WIND       PRES   REMARKS
FAYETTEVILLE   PTSUNNY   59  45  58 MISG      29.79S
TULLAHOMA      PTSUNNY   63  45  51 SW25      29.78R
WINCHESTER     MOSUNNY   63  45  51 SW18G28   29.79R
MCMINNVILLE    PTSUNNY   64  46  52 SW25      29.75R
COLUMBIA       PTSUNNY   54  45  71 W14       29.80S
SHELBYVILLE    PTSUNNY   61  48  63 W21       29.79R
$$

TNZ017-018-042-046-047-241800-
NORTHEAST TENNESSEE

CITY           SKY/WX    TMP DP  RH WIND       PRES   REMARKS
TRI CITIES     MOSUNNY   70  46  42 SW25G35   29.70S
ELIZABETHTON   SUNNY     70  41  35 SW16      29.70F
$$

TNZ012-013-036-069-073-074-241800-
CENTRAL EAST TENNESSEE

CITY           SKY/WX    TMP DP  RH WIND       PRES   REMARKS
KNOXVILLE      MOSUNNY   68  52  56 SW31G40   29.71F
OAK RIDGE      PTSUNNY   67  53  61 SW9G20    29.72S
GATLINBURG     MOSUNNY   72  48  43 W16G28    29.70S
MORRISTOWN     SUNNY     68  50  52 SW30G43   29.71F
$$

TNZ083-085-099-241800-
SOUTHEAST TENNESSEE

CITY           SKY/WX    TMP DP  RH WIND       PRES   REMARKS
CHATTANOOGA    PTSUNNY   70  51  51 SW17G29   29.76S
$$

SKY/WX REPORTED AS FAIR MEANS FEW OR NO CLOUDS BELOW
12 THOUSAND FEET.





U.S. Dept. of Commerce
NOAA National Weather Service
1325 East West Highway
Silver Spring, MD 20910
E-mail: w-nws.webmaster@noaa.gov
Page last modified: May 16, 2007
NATIONAL WEATHER SERVICE: for Safety, for Work, for Fun - FOR LIFE